Location: Moscow Pond
(43.6842°N, 73.2366°W)
Time: 21:59:13
(UTC+00:00)

Cosmos 1943 Rocket - Pass Details

Date: 08 November 2025
Orbit: 812 x 841 km, 71.0° (Epoch: 05 December)

Event Time Altitude Azimuth Distance (km) Brightness Sun altitude
Exits shadow 10:52:21 - 324° (NW) 3,050 4.6 -8.7°
Reaches altitude 10° 10:54:09 10° 317° (NW) 2,418 4.1 -8.4°
Maximum altitude 10:59:00 32° 256° (WSW) 1,356 2.9 -7.5°
Drops below altitude 10° 11:03:49 10° 194° (SSW) 2,393 4.6 -6.7°
Sets 11:06:26 0° 184° (S) 3,319 5.5 -6.3°
